Andrews, TX

10:03 AM CST on December 13, 2019 (GMT -0600)
Andrews

Weather History for KE11 - October, 2019

Change the Weather History Date:

Monday, October 28, 2019

  Actual Average (KMAF) Record (KMAF)
Temperature  
Mean Temperature 46 °F -  
Max Temperature 59 °F 69 °F 91 °F (1950)
Min Temperature 32 °F 46 °F 33 °F (1980)
Degree Days  
Heating Degree Days 20    
Moisture  
Dew Point 33 °F    
Average Humidity 70    
Maximum Humidity 100    
Minimum Humidity 39    
Precipitation  
Precipitation 0.00 in - - ()
Sea Level Pressure  
Sea Level Pressure 30.01 in    
Wind  
Wind Speed 8 mph ()    
Max Wind Speed 14 mph    
Max Gust Speed 20 mph    
Visibility 10.0 miles    
Events      
Averages and records for this station are not official NWS values.
T = Trace of Precipitation, MM = Missing Value Source: Averaged Metar Reports

Daily Weather History Graph

Daily Weather History Graph

Search for Another Location

Airport or City:

Astronomy

Oct. 28, 2019 Rise Set
Actual Time 8:03 AM CDT 7:03 PM CDT
Civil Twilight 7:38 AM CDT 7:28 PM CDT
Nautical Twilight 7:09 AM CDT 7:57 PM CDT
Astronomical Twilight 6:41 AM CDT 8:26 PM CDT
Moon 8:29 AM CDT (10/28) 7:50 PM CDT (10/28)
Length of Visible Light 11h 50m
Length of Day
10h 59m
New Moon, 0% of the Moon is Illuminated
Oct 28
New Moon
Nov 4
First Quarter
Nov 12
Full
Nov 19
Last Quarter
Nov 26
New

Hourly Weather History & Observations

Time (CDT) Temp. Windchill Dew Point Humidity Pressure Visibility Wind Dir Wind Speed Gust Speed Precip Events Conditions
12:15 AM 44.6 °F 39.7 °F 32.5 °F 63% 30.00 in 10.0 mi ENE 9.2 mph - N/A   Clear
12:35 AM 43.9 °F 39.3 °F 32.5 °F 64% 30.00 in 10.0 mi ENE 8.1 mph - N/A   Clear
12:55 AM 43.7 °F 38.1 °F 32.5 °F 65% 30.00 in 10.0 mi ENE 10.4 mph - N/A   Clear
1:15 AM 43.7 °F 39.1 °F 32.5 °F 65% 30.00 in 10.0 mi NE 8.1 mph - N/A   Clear
1:35 AM 42.1 °F 36.1 °F 32.4 °F 68% 30.01 in 10.0 mi NE 10.4 mph - N/A   Clear
1:55 AM 42.4 °F 36.1 °F 32.5 °F 68% 30.01 in 10.0 mi ENE 11.5 mph 19.6 mph N/A   Clear
2:15 AM 40.8 °F 35.6 °F 32.2 °F 71% 30.02 in 10.0 mi NE 8.1 mph - N/A   Clear
2:35 AM 40.1 °F 35.3 °F 32.2 °F 73% 30.01 in 10.0 mi ENE 6.9 mph 16.1 mph N/A   Clear
2:55 AM 39.6 °F 32.1 °F 32.2 °F 75% 30.00 in 10.0 mi ENE 12.7 mph 18.4 mph N/A   Clear
3:15 AM 39.4 °F 32.3 °F 32.0 °F 75% 30.00 in 10.0 mi ENE 11.5 mph - N/A   Clear
3:35 AM 38.8 °F 31.2 °F 32.0 °F 76% 29.99 in 10.0 mi ENE 12.7 mph - N/A   Clear
3:55 AM 38.3 °F 30.1 °F 32.0 °F 78% 29.99 in 10.0 mi ENE 13.8 mph 18.4 mph N/A   Clear
4:15 AM 37.4 °F 30.3 °F 32.0 °F 81% 29.99 in 10.0 mi ENE 10.4 mph - N/A   Clear
4:35 AM 36.9 °F 30.1 °F 31.6 °F 81% 30.00 in 10.0 mi NE 9.2 mph - N/A   Clear
4:55 AM 36.0 °F 29.0 °F 31.5 °F 84% 29.99 in 10.0 mi ENE 9.2 mph - N/A   Clear
5:15 AM 35.6 °F 28.0 °F 31.5 °F 85% 29.99 in 10.0 mi ENE 10.4 mph - N/A   Clear
5:35 AM 35.1 °F 29.3 °F 31.1 °F 85% 29.99 in 10.0 mi NNE 6.9 mph - N/A   Clear
5:55 AM 33.8 °F 27.7 °F 31.1 °F 90% 30.01 in 10.0 mi NNE 6.9 mph - N/A   Clear
6:15 AM 33.1 °F 27.7 °F 30.9 °F 92% 30.02 in 10.0 mi NNE 5.8 mph - N/A   Clear
6:35 AM 32.9 °F 25.9 °F 31.5 °F 94% 30.02 in 10.0 mi NNE 8.1 mph - N/A   Clear
6:55 AM 32.9 °F 25.3 °F 32.0 °F 96% 30.01 in 10.0 mi NE 9.2 mph - N/A   Clear
7:15 AM 33.1 °F 27.7 °F 31.5 °F 94% 30.01 in 10.0 mi NE 5.8 mph - N/A   Clear
7:35 AM 32.0 °F 27.5 °F 32.0 °F 100% 30.03 in 10.0 mi NNE 4.6 mph - N/A   Clear
7:55 AM 32.0 °F 26.4 °F 32.0 °F 100% 30.04 in 10.0 mi NNE 5.8 mph - N/A   Clear
8:15 AM 32.0 °F 25.6 °F 32.0 °F 100% 30.05 in 10.0 mi NNE 6.9 mph - N/A   Clear
8:35 AM 33.4 °F 26.6 °F 32.0 °F 94% 30.05 in 10.0 mi NNE 8.1 mph - N/A   Clear
8:55 AM 34.2 °F 27.5 °F 32.0 °F 92% 30.05 in 10.0 mi NE 8.1 mph - N/A   Clear
9:15 AM 35.6 °F 27.1 °F 31.1 °F 84% 30.05 in 10.0 mi NE 12.7 mph 17.3 mph N/A   Mostly Cloudy
9:35 AM 36.1 °F 28.7 °F 31.1 °F 82% 30.06 in 10.0 mi NE 10.4 mph - N/A   Overcast
9:55 AM 36.9 °F 28.2 °F 30.9 °F 79% 30.07 in 10.0 mi NNE 13.8 mph 18.4 mph N/A   Overcast
10:15 AM 37.8 °F 30.7 °F 30.9 °F 76% 30.07 in 10.0 mi ENE 10.4 mph 16.1 mph N/A   Overcast
10:35 AM 38.5 °F 31.6 °F 31.1 °F 75% 30.05 in 10.0 mi East 10.4 mph - N/A   Overcast
10:55 AM 39.2 °F 33.0 °F 30.9 °F 72% 30.05 in 10.0 mi ENE 9.2 mph 16.1 mph N/A   Overcast
11:15 AM 39.7 °F 32.3 °F 31.1 °F 71% 30.04 in 10.0 mi ENE 12.7 mph - N/A   Overcast
11:35 AM 40.8 °F 36.2 °F 31.3 °F 69% 30.05 in 10.0 mi ENE 6.9 mph 16.1 mph N/A   Overcast
11:55 AM 40.8 °F 36.2 °F 31.8 °F 70% 30.07 in 10.0 mi North 6.9 mph - N/A   Overcast
12:15 PM 41.0 °F 35.8 °F 31.6 °F 69% 30.07 in 10.0 mi North 8.1 mph - N/A   Overcast
12:35 PM 41.7 °F 36.1 °F 31.8 °F 68% 30.04 in 10.0 mi NE 9.2 mph - N/A   Overcast
12:55 PM 43.7 °F 39.7 °F 32.2 °F 64% 30.02 in 10.0 mi East 6.9 mph - N/A   Mostly Cloudy
1:15 PM 45.7 °F 41.5 °F 32.5 °F 60% 30.00 in 10.0 mi East 8.1 mph - N/A   Scattered Clouds
1:35 PM 44.8 °F 41.6 °F 33.3 °F 64% 30.01 in 10.0 mi ESE 5.8 mph - N/A   Clear
1:55 PM 45.7 °F 43.4 °F 33.3 °F 62% 29.99 in 10.0 mi South 4.6 mph - N/A   Clear
2:15 PM 48.0 °F - 33.1 °F 56% 29.97 in 10.0 mi East 3.5 mph - N/A   Clear
2:35 PM 50.2 °F - 33.6 °F 53% 29.97 in 10.0 mi SSE 4.6 mph - N/A   Clear
2:55 PM 50.5 °F - 33.8 °F 53% 29.96 in 10.0 mi Calm Calm - N/A   Clear
3:15 PM 52.9 °F - 34.2 °F 49% 29.96 in 10.0 mi WSW 3.5 mph - N/A   Clear
3:35 PM 54.1 °F - 34.2 °F 47% 29.94 in 10.0 mi ESE 3.5 mph - N/A   Clear
3:55 PM 55.6 °F - 34.0 °F 44% 29.94 in 10.0 mi Calm Calm - N/A   Clear
4:15 PM 57.7 °F - 34.0 °F 41% 29.94 in 10.0 mi SSW 6.9 mph - N/A   Clear
4:35 PM 57.7 °F - 33.8 °F 41% 29.94 in 10.0 mi Calm Calm - N/A   Clear
4:55 PM 59.2 °F - 34.3 °F 39% 29.94 in 10.0 mi ESE 4.6 mph - N/A   Clear
5:15 PM 59.5 °F - 34.2 °F 39% 29.94 in 10.0 mi ESE 4.6 mph - N/A   Clear
5:35 PM 59.4 °F - 34.3 °F 39% 29.94 in 10.0 mi ESE 8.1 mph - N/A   Clear
5:55 PM 58.5 °F - 34.7 °F 41% 29.94 in 10.0 mi ESE 8.1 mph - N/A   Clear
6:35 PM 55.9 °F - 34.7 °F 45% 29.96 in 10.0 mi East 8.1 mph - N/A   Clear
6:55 PM 53.2 °F - 34.7 °F 49% 29.97 in 10.0 mi ENE 8.1 mph - N/A   Clear
7:15 PM 50.9 °F - 34.7 °F 54% 29.97 in 10.0 mi ENE 10.4 mph - N/A   Clear
7:35 PM 48.9 °F - 34.9 °F 58% 29.98 in 10.0 mi ENE 9.2 mph - N/A   Clear
7:55 PM 47.5 °F - 35.1 °F 62% 29.98 in 10.0 mi ENE 8.1 mph - N/A   Clear
8:15 PM 45.9 °F 42.9 °F 34.7 °F 65% 30.01 in 10.0 mi East 5.8 mph - N/A   Clear
8:35 PM 45.0 °F 41.8 °F 34.7 °F 67% 30.02 in 10.0 mi East 5.8 mph - N/A   Clear
8:55 PM 45.1 °F 40.8 °F 35.1 °F 68% 30.02 in 10.0 mi East 8.1 mph - N/A   Clear
9:15 PM 44.4 °F 40.0 °F 34.9 °F 69% 30.03 in 10.0 mi East 8.1 mph - N/A   Clear
9:35 PM 44.1 °F 38.1 °F 35.1 °F 71% 30.03 in 10.0 mi East 11.5 mph - N/A   Clear
9:55 PM 43.0 °F 36.4 °F 34.7 °F 73% 30.04 in 10.0 mi East 12.7 mph - N/A   Clear
10:15 PM 41.9 °F 35.0 °F 34.0 °F 73% 30.05 in 10.0 mi East 12.7 mph - N/A   Clear
10:35 PM 40.8 °F 34.5 °F 33.4 °F 75% 30.05 in 10.0 mi East 10.4 mph 17.3 mph N/A   Clear
10:55 PM 40.1 °F 33.2 °F 33.4 °F 77% 30.05 in 10.0 mi East 11.5 mph - N/A   Clear
11:15 PM 39.2 °F 33.0 °F 33.1 °F 79% 30.07 in 10.0 mi East 9.2 mph - N/A   Clear
11:35 PM 38.5 °F 32.1 °F 32.9 °F 80% 30.07 in 10.0 mi ENE 9.2 mph - N/A   Clear
11:55 PM 37.9 °F 30.5 °F 32.9 °F 82% 30.07 in 10.0 mi ENE 11.5 mph - N/A   Clear